Theta_e
345 345 346 347 349 347 346 346 349 349 349 349 348 343 344 343 345 348 349 351 349 348 349 348 345 342 344 344 341 342 338 329 333 335 334 334 336 337 339 340 337 336 336
346 346 345 346 347 347 348 348 347 349 350 349 350 350 347 340 343 347 346 348 348 348 346 342 342 345 344 345 343 342 331 327 335 329 334 335 337 338 338 336 334 334 335
345 345 345 345 346 347 348 348 348 348 349 350 351 351 350 343 344 346 346 345 346 346 347 345 342 344 344 343 343 340 337 332 334 334 337 339 337 338 337 335 334 330 331
344 344 345 346 346 346 347 347 348 348 349 349 350 352 351 344 346 347 347 348 349 348 349 346 344 343 342 345 343 341 322 328 334 335 333 335 338 339 337 336 336 330 331
343 343 344 345 345 345 346 346 347 348 348 348 349 350 351 346 346 348 350 350 350 350 350 346 342 339 341 344 342 338 330 323 332 335 336 331 331 334 338 338 336 333 332
342 343 343 344 345 345 345 346 347 348 348 349 350 349 348 348 347 350 350 348 345 348 350 345 345 341 341 343 338 337 333 324 330 335 336 333 333 334 335 335 332 332 332
342 342 343 344 345 345 346 346 347 348 348 349 349 349 347 345 347 352 350 347 345 347 349 345 344 337 342 335 335 331 326 318 321 333 335 334 333 333 333 333 333 332 331
341 342 343 343 344 345 346 347 347 348 348 348 349 349 346 342 345 348 349 347 349 348 347 348 343 336 338 331 330 325 320 319 319 322 328 332 334 333 333 333 332 330 331
340 341 341 342 343 345 345 346 347 347 347 347 349 350 347 340 345 346 346 349 350 349 350 345 340 335 332 328 324 322 320 320 320 321 321 327 334 333 333 332 332 332 331
341 340 341 341 343 343 344 345 346 347 347 347 348 350 350 341 340 345 348 351 352 352 351 349 346 343 339 329 323 321 321 324 322 323 322 321 321 333 333 332 332 332 331
342 342 341 341 343 344 346 345 346 347 348 348 349 350 351 348 341 341 348 350 350 350 351 351 349 347 344 342 339 324 322 328 323 324 323 323 327 325 329 330 331 332 332
342 344 343 345 342 343 345 346 346 347 347 348 349 350 351 351 347 341 340 344 348 349 350 352 350 348 346 343 342 339 322 329 325 325 327 324 323 327 327 325 331 331 331
341 343 344 343 342 342 344 345 346 345 346 349 350 350 351 351 351 347 340 339 341 346 347 351 351 349 348 345 343 340 327 323 329 325 329 327 324 323 326 325 322 330 331
342 341 343 345 346 345 345 345 345 345 347 348 350 350 351 350 349 348 345 338 339 342 342 344 351 352 351 350 346 343 338 324 327 326 327 329 329 326 325 322 328 329 331
341 341 341 341 343 345 345 346 345 346 347 348 349 349 350 349 348 347 346 341 340 341 341 344 344 346 348 350 349 347 345 339 324 328 325 327 329 330 329 325 329 331 332
339 340 339 340 343 344 346 346 346 346 347 348 348 349 349 350 349 346 344 345 340 341 344 345 345 344 346 348 349 349 347 345 334 324 327 327 327 330 333 329 331 333 333
339 339 339 339 343 345 347 347 347 347 348 348 348 349 348 348 348 348 345 342 343 343 344 348 350 351 352 352 352 351 349 346 344 326 328 327 329 329 333 333 333 330 329
337 338 341 343 344 345 347 347 347 348 348 350 351 349 349 347 348 348 347 344 343 345 345 350 353 353 353 355 355 354 352 348 344 331 328 330 331 332 334 331 334 333 331
336 336 337 340 346 345 346 347 347 347 349 350 350 349 348 347 347 348 347 346 346 347 348 352 354 355 356 355 356 353 349 346 340 331 330 334 335 334 333 334 333 332 329
333 334 336 337 338 336 338 346 346 346 346 347 347 349 348 348 347 348 350 351 352 350 352 356 357 357 357 356 353 348 345 342 337 333 333 337 337 337 336 334 336 332 328
329 330 335 336 336 340 344 346 344 346 344 345 345 349 350 348 347 348 353 354 357 358 357 359 357 350 355 354 349 344 342 340 338 337 338 338 337 336 335 334 333 330 328
332 332 331 333 334 335 334 340 345 342 343 348 348 347 349 349 351 352 355 358 358 359 362 358 353 346 352 349 345 343 341 341 341 340 339 338 339 337 336 332 328 327 325
338 336 334 331 331 330 330 331 333 338 343 349 349 349 351 352 354 356 359 360 358 359 357 355 348 347 346 345 343 342 342 342 341 339 338 338 338 334 332 329 328 328 327
340 341 342 339 335 332 332 332 336 342 349 353 354 354 354 355 356 360 360 359 357 357 354 351 347 345 343 344 344 342 340 339 339 338 337 337 336 333 330 329 325 323 322
343 343 344 343 339 338 339 342 345 346 357 358 361 360 361 361 362 364 363 360 355 353 350 346 341 341 339 337 341 341 341 340 338 335 334 335 332 330 326 324 324 323 322
349 352 355 360 360 360 357 353 357 358 357 361 362 359 358 359 359 359 357 352 347 338 348 343 341 342 341 341 340 339 337 334 331 330 329 329 328 326 325 323 324 325 324
Wind_Speed
41 36 35 38 40 36 34 30 33 34 29 27 23 23 31 28 26 19 15 15 15 16 11 11 9 9 9 6 7 5 6 6 3 2 9 7 5 9 4 8 3 1 2
43 44 42 40 43 41 37 32 33 33 31 29 26 22 17 23 25 19 20 18 16 11 9 7 8 15 10 11 10 7 5 7 5 2 11 7 7 7 11 8 2 4 3
46 47 49 48 45 45 42 38 36 37 35 31 26 24 18 17 23 22 24 20 18 13 12 11 9 12 12 12 10 7 7 6 6 7 6 6 6 12 11 6 1 2 2
50 50 52 53 50 48 44 41 39 39 38 33 30 30 27 23 25 20 21 19 15 17 15 12 13 11 14 13 11 7 4 9 9 9 7 6 10 7 10 10 7 5 4
51 52 54 56 55 50 47 45 43 41 39 35 34 33 31 25 23 22 15 18 18 20 19 13 13 16 16 14 12 8 5 7 9 7 9 6 8 7 10 9 10 8 8
45 52 56 54 56 54 51 49 47 44 41 37 35 35 34 28 31 24 20 21 18 22 21 14 14 16 16 15 12 9 8 9 13 10 10 9 9 9 8 9 7 4 4
46 50 50 54 55 57 56 53 50 48 45 41 37 34 33 30 33 27 26 22 22 24 22 17 19 17 16 17 15 10 10 10 13 15 13 12 11 9 8 8 9 7 4
50 53 57 59 60 59 58 57 54 51 48 44 40 34 33 33 31 29 31 28 25 21 17 19 21 19 16 15 15 13 12 12 14 16 16 14 14 13 12 12 11 8 7
50 55 60 61 61 62 61 60 58 54 51 47 43 38 34 37 34 30 31 30 24 21 20 18 18 19 18 17 16 16 13 13 12 12 15 18 17 15 15 12 10 9 7
51 51 54 60 60 60 62 60 59 57 53 49 46 42 36 38 36 35 36 33 26 25 25 22 20 18 18 17 17 17 16 13 13 12 12 14 19 22 19 17 15 12 11
50 51 49 55 60 57 58 60 60 59 57 52 48 45 41 37 39 39 38 39 36 32 30 28 25 24 23 21 20 19 19 16 16 15 14 15 15 17 18 18 18 18 15
45 45 58 54 51 53 55 60 59 59 58 55 49 47 44 41 39 42 42 41 42 40 36 33 33 30 27 27 24 23 24 21 18 17 16 16 17 18 18 18 20 20 18
34 42 47 45 45 49 54 60 61 59 57 56 53 49 49 45 42 41 43 43 44 42 42 40 37 34 31 30 28 25 25 26 21 21 20 19 20 20 19 21 22 23 20
39 31 34 43 45 50 53 60 63 60 58 57 55 52 50 47 43 42 43 45 44 45 45 45 43 39 35 34 32 30 27 28 27 24 25 23 23 23 21 22 22 21 19
34 38 45 42 52 51 57 62 65 61 59 58 57 55 51 47 44 44 44 45 45 45 45 44 45 44 41 38 36 35 31 29 31 28 28 26 25 24 22 23 23 21 21
37 36 29 38 52 60 61 65 64 62 59 59 59 56 52 51 49 47 46 45 44 44 44 44 43 43 42 40 39 36 34 32 33 33 30 27 26 26 25 25 25 22 22
38 28 28 43 56 61 67 62 58 59 59 61 60 58 54 52 52 50 47 47 45 43 43 41 41 40 39 37 37 35 35 34 32 34 30 27 27 27 27 26 26 26 25
27 22 28 35 51 55 56 58 56 57 59 59 60 60 57 53 51 51 50 48 46 43 42 40 37 36 35 32 31 31 31 30 30 30 28 27 27 26 26 27 28 28 27
22 18 22 24 32 33 46 51 53 55 56 56 57 61 59 54 51 49 49 48 46 42 41 36 34 32 29 28 30 29 26 24 23 23 24 25 26 26 27 28 29 27 26
20 20 20 28 34 37 41 47 51 53 54 54 55 56 60 56 52 47 45 46 43 40 36 33 29 24 27 27 25 20 19 17 16 20 24 26 26 26 26 27 26 22 22
26 23 21 23 20 22 38 42 44 46 40 41 40 52 57 57 52 49 45 45 41 36 30 28 24 18 29 26 20 15 15 16 17 19 23 27 28 30 32 29 21 19 20
22 28 27 33 35 33 37 35 37 35 34 45 45 45 51 54 52 51 47 44 39 34 32 28 25 24 22 16 15 14 16 16 18 16 17 20 23 22 18 14 14 14 16
12 11 15 27 32 30 31 36 39 37 38 44 47 48 49 48 49 50 47 43 37 37 34 33 26 22 20 21 16 14 16 18 17 15 16 20 18 13 12 12 14 17 14
9 8 10 15 21 28 32 38 40 44 48 50 51 50 49 47 47 47 45 41 38 42 35 29 26 18 18 16 17 19 18 18 18 17 17 18 18 13 11 12 11 10 11
3 5 11 18 20 22 25 29 36 41 43 46 43 42 43 42 43 46 46 39 33 29 28 26 22 21 18 11 15 21 13 14 14 15 15 14 12 11 10 10 9 9 12
3 6 7 10 15 19 23 26 28 33 37 44 42 35 34 36 34 38 28 20 21 15 13 14 20 21 14 15 14 13 11 11 11 12 11 11 11 10 9 9 8 10 12
Wind_Direction
197 207 206 203 196 201 206 212 207 208 207 212 212 216 224 224 217 219 227 231 232 242 249 258 211 218 237 260 266 225 289 251 167 171 167 173 186 169 193 164 216 245 215
198 204 207 208 203 206 209 213 214 210 212 221 221 221 221 216 215 220 226 234 237 239 268 229 255 224 236 236 234 268 292 183 172 144 177 174 157 163 173 177 235 273 261
198 204 207 207 210 209 212 214 217 218 223 222 221 220 219 218 216 221 228 232 243 227 247 242 246 207 230 238 239 256 266 190 166 119 164 159 190 171 187 180 136 28 331
201 203 206 209 211 214 215 216 217 218 222 225 219 218 219 209 204 210 215 224 224 220 229 247 223 227 232 231 248 254 259 220 196 166 142 157 179 186 184 197 201 204 259
203 204 207 212 213 215 216 218 218 218 222 224 225 223 225 222 215 219 217 214 225 226 227 238 226 227 230 234 248 250 258 235 210 206 170 165 158 167 192 204 211 228 236
207 209 212 213 214 215 217 217 216 218 220 223 228 229 229 228 218 214 215 219 221 224 221 227 228 236 227 230 239 244 258 258 225 204 200 193 188 195 184 176 172 214 228
207 209 209 209 213 214 217 218 217 218 219 223 227 230 230 227 216 216 220 224 225 226 217 226 226 233 230 236 231 245 258 246 224 225 223 229 222 208 204 212 230 237 236
204 208 212 214 214 217 217 218 218 219 220 222 226 228 228 220 214 215 222 227 227 227 227 237 235 233 230 229 231 237 243 244 231 229 232 229 226 229 230 237 247 247 249
205 207 213 216 215 216 219 220 219 220 222 223 224 224 225 219 215 208 215 226 225 228 230 233 228 230 227 224 226 228 231 239 236 229 229 224 228 234 238 242 244 246 256
204 207 210 214 216 219 222 221 224 221 223 224 224 223 223 221 218 210 215 223 221 223 224 231 231 228 228 232 235 232 232 237 233 227 230 231 232 233 241 243 248 249 253
199 203 208 216 218 216 218 223 223 224 223 222 223 223 222 222 220 218 217 221 226 227 230 237 234 236 235 236 239 240 235 240 237 232 231 228 232 232 235 244 243 249 252
192 202 210 210 211 218 219 224 225 225 226 224 221 223 223 222 221 223 223 221 226 230 233 236 237 238 238 239 244 245 239 237 239 238 241 241 235 237 236 245 241 246 251
200 206 202 209 212 219 220 224 228 229 228 226 222 222 222 222 224 226 225 225 224 228 232 234 236 237 240 240 243 246 246 244 246 241 239 246 247 246 245 250 243 243 251
218 216 213 212 221 222 223 225 227 229 228 228 226 222 223 223 223 226 227 228 228 230 231 234 237 241 243 245 246 248 250 248 245 246 244 244 247 252 250 244 239 238 242
214 226 220 225 226 222 223 223 227 227 227 228 228 227 224 226 226 226 229 230 230 232 235 236 239 242 245 247 250 252 252 253 246 245 247 248 248 253 256 253 245 245 249
212 206 212 228 218 221 220 225 222 226 225 227 230 229 227 227 228 229 230 231 232 232 236 236 238 241 245 249 253 256 255 256 251 243 246 248 251 254 257 255 249 251 260
219 222 227 219 209 212 216 218 222 225 225 227 229 229 229 228 230 229 230 234 234 232 236 237 238 240 244 251 255 257 256 255 256 248 249 249 252 256 257 258 254 252 257
195 211 208 208 211 215 218 221 223 224 226 228 225 229 228 230 230 231 231 233 234 233 234 236 239 242 245 250 254 254 257 254 251 246 250 253 254 257 258 263 255 256 263
214 198 219 208 210 220 223 224 221 225 225 227 229 228 230 228 230 230 231 231 232 231 234 235 238 239 240 239 242 245 248 252 254 250 249 254 260 258 262 267 258 261 255
225 214 212 221 204 212 224 225 225 225 229 231 233 232 230 230 230 230 231 231 231 233 233 234 235 240 244 244 243 244 242 237 244 253 251 251 262 263 263 273 258 255 262
211 228 223 210 203 203 216 219 227 224 228 231 233 231 230 230 231 232 229 230 226 227 229 227 225 218 253 240 238 227 232 233 232 242 249 253 262 257 265 272 265 262 273
207 216 220 225 230 216 218 225 224 236 232 230 229 230 231 229 228 229 226 225 225 224 221 217 222 217 221 232 229 237 237 242 245 250 245 252 256 268 267 249 252 264 269
173 202 226 233 230 230 231 230 229 228 231 227 228 230 228 225 225 222 219 219 219 221 217 212 201 206 217 216 211 229 235 242 246 246 254 257 261 254 244 250 260 271 264
150 178 206 221 226 230 234 235 233 230 226 222 220 220 220 217 217 216 215 216 215 218 223 196 186 195 205 209 223 225 221 227 238 249 252 256 261 236 236 255 240 231 220
136 212 216 223 238 244 239 234 232 230 217 213 204 197 201 203 198 204 202 204 218 225 206 186 183 183 191 199 218 234 230 241 243 242 239 240 239 237 228 216 228 232 236
222 254 256 250 237 232 233 231 226 220 213 198 194 205 210 215 204 193 179 195 177 163 210 185 187 188 175 168 188 207 216 210 215 222 225 224 223 208 218 233 258 254 253